Home   Weather   Douai   Past weeks

Flag for France Past Weather in Douai, Nord-Pas-de-Calais, France — Yesterday and Last 2 Weeks

Now
34 °F

Clear.


Feels Like: 31 °F
Forecast: 37 / 46 °F
Wind: 3 mph from Southeast

Location: Lille Airport

Current Time: Dec 6, 2016 at 7:05:03 am

Latest Report: Dec 6, 2016 at 6:30 am


Visibility: 4 mi

Pressure: 30.36 "Hg

Humidity: 87%

Dew Point: 30 °F

Location of DouaiLocation

Past Weather in Douai — Graph

°F

Douai Temperature Yesterday

Maximum temperature yesterday: 41 °F (at 2:00 pm)
Minimum temperature yesterday: 28 °F (at 2:30 am)
Average temperature yesterday: 34 °F

High & Low Weather Summary for the Past Weeks

 TemperatureHumidityPressure
High59 °F (Nov 21, 1:30 pm)100% (Nov 22, 9:30 pm)30.57 "Hg (Nov 22, 9:30 pm)
Low23 °F (Nov 30, 6:30 am)53% (Nov 30, 2:00 pm)29.30 "Hg (Nov 21, 1:00 pm)
Average40 °F85%30.16 "Hg
* Reported Nov 21 6:00 am — Dec 6 6:00 am, Douai, Weather by CustomWeather, © 2016

Note: Actual official high and low records may vary slightly from our data, if they occured in-between our weather recording intervals... More about our weather records

Advertising

Douai Weather History for the Previous 24 Hours

Scroll right to see more
 ConditionsComfort  
Time TempWeatherWind HumidityBarometerVisibility
6:00 am
Tue, Dec 6
34 °FClear.3 mph87%30.36 "Hg4 mi
5:30 am34 °FClear.3 mph87%30.33 "Hg4 mi
5:00 am34 °FClear.3 mph93%30.33 "Hg4 mi
4:30 am34 °FClear.3 mph93%30.33 "Hg4 mi
4:00 am36 °FClear.3 mph87%30.33 "Hg4 mi
3:30 am36 °FClear.5 mph87%30.33 "Hg4 mi
3:00 am36 °FClear.3 mph87%30.33 "Hg4 mi
2:30 am36 °FClear.3 mph87%30.33 "Hg4 mi
2:00 am36 °FClear.3 mph87%30.33 "Hg4 mi
1:30 am36 °FClear.5 mph87%30.33 "Hg4 mi
1:00 am37 °FClear.2 mph87%30.33 "Hg4 mi
12:30 am37 °FClear.5 mph87%30.30 "Hg4 mi
12:00 am37 °FClear.5 mph87%30.30 "Hg4 mi
11:30 pm
Mon, Dec 5
37 °FClear.2 mph87%30.30 "Hg4 mi
11:00 pm37 °FClear.3 mph87%30.30 "Hg4 mi
10:30 pm39 °FClear.3 mph81%30.30 "Hg4 mi
10:00 pm37 °FClear.3 mph87%30.30 "Hg4 mi
9:30 pm37 °FClear.3 mph87%30.30 "Hg4 mi
9:00 pm37 °FClear.2 mph87%30.30 "Hg4 mi
8:30 pm37 °FClear.2 mph87%30.30 "Hg4 mi
8:00 pm37 °FClear.2 mph87%30.30 "Hg4 mi
7:30 pm37 °FClear.1 mph87%30.30 "Hg4 mi
7:00 pm37 °FClear.2 mph87%30.30 "Hg4 mi
6:30 pm37 °FClear.2 mph81%30.30 "Hg4 mi
6:00 pm37 °FClear.2 mph81%30.27 "Hg4 mi
5:30 pm37 °FClear.2 mph81%30.27 "Hg4 mi
5:00 pm37 °FClear.3 mph81%30.27 "Hg5 mi
4:30 pm39 °FClear.3 mph75%30.27 "Hg5 mi
4:00 pm41 °FClear.3 mph76%30.27 "Hg5 mi
3:30 pm41 °FClear.3 mph76%30.27 "Hg6 mi
3:00 pm41 °FSunny.5 mph76%30.27 "Hg10 mi
2:30 pm41 °FSunny.5 mph76%30.27 "Hg10 mi
2:00 pm41 °FSunny.5 mph70%30.27 "Hg10 mi
1:30 pm39 °FSunny.5 mph75%30.27 "Hg10 mi
1:00 pm39 °FPassing clouds.3 mph75%30.27 "HgN/A
12:30 pm39 °FSunny.5 mph75%30.27 "Hg10 mi
12:00 pm37 °FClear.5 mph75%30.27 "Hg6 mi
11:30 am36 °FPassing clouds.5 mph81%30.27 "HgN/A
11:00 am36 °FClear.3 mph81%30.27 "Hg5 mi
10:30 am34 °FClear.2 mph87%30.27 "Hg4 mi
10:00 am30 °FClear.1 mph93%30.27 "Hg4 mi
9:30 am28 °FIce fog.No wind93%30.27 "Hg3 mi
9:00 am28 °FClear.2 mph86%30.27 "Hg4 mi
8:30 am28 °FClear.6 mph93%30.27 "Hg5 mi
8:00 am28 °FClear.6 mph93%30.27 "Hg6 mi
7:30 am28 °FClear.3 mph93%30.24 "Hg6 mi
7:00 am28 °FClear.2 mph93%30.24 "Hg6 mi
Weather by CustomWeather, © 2016

See weather overviewHow to use our weather pages